Location: Arclight Observatory
(36.5667°N, 87.3333°W)
Time: 18:07:21
(UTC-06:00)

ISS - Visible Passes

Search period start: 22 November 2017 00:00
Search period end: 02 December 2017 00:00
Orbit: 402 x 407 km, 51.6° (Epoch: 23 November)

Date Brightness Start Highest point End Pass type
(mag) Time Alt. Az. Time Alt. Az. Time Alt. Az.
23 Nov -1.0 18:32:11 10° S 18:32:21 11° S 18:32:21 11° S visible
24 Nov -1.5 17:41:34 10° SSE 17:42:43 12° SE 17:42:43 12° SE visible
25 Nov -2.9 18:23:19 10° SW 18:25:41 42° SSW 18:25:41 42° SSW visible
26 Nov -2.7 17:31:27 10° SSW 17:34:21 30° SE 17:35:51 20° E visible
26 Nov -0.5 19:08:03 10° W 19:08:32 13° W 19:08:32 13° W visible
27 Nov -3.1 18:15:14 10° WSW 18:18:23 44° NW 18:18:36 43° NNW visible
28 Nov -3.9 17:22:45 10° SW 17:26:01 87° SE 17:28:36 15° NE visible
28 Nov -0.5 19:01:03 10° WNW 19:01:16 11° NW 19:01:16 11° NW visible
29 Nov -1.9 18:07:43 10° W 18:10:18 21° NNW 18:11:10 19° N visible
30 Nov -2.6 17:14:44 10° WSW 17:17:48 36° NW 17:20:52 10° NNE visible
01 Dec -1.2 18:00:52 10° NW 18:02:20 12° NNW 18:03:25 11° N visible
